Time,TemperatureF,DewpointF,PressureIn,WindDirection,WindDirectionDegrees,WindSpeedMPH,WindSpeedGustMPH,Humidity,HourlyPrecipIn,Conditions,Clouds,dailyrainin,SoftwareType,DateUTC
2013-08-18 00:01:00,63.0,54.9,29.88,SW,225,0.0,0.0,75,0.00,,,0.00,VWS V13.01,2013-08-18 04:01:00,
2013-08-18 00:06:00,63.0,55.3,29.88,SW,225,0.0,0.0,76,0.00,,,0.00,VWS V13.01,2013-08-18 04:06:00,
2013-08-18 00:11:00,63.0,55.7,29.88,SW,225,0.0,0.0,77,0.00,,,0.00,VWS V13.01,2013-08-18 04:11:00,
2013-08-18 00:16:00,62.8,55.5,29.88,SW,225,0.0,0.0,77,0.00,,,0.00,VWS V13.01,2013-08-18 04:16:00,
2013-08-18 00:21:00,62.8,55.8,29.88,SW,225,0.0,0.0,78,0.00,,,0.00,VWS V13.01,2013-08-18 04:21:00,
2013-08-18 00:26:00,62.6,55.7,29.88,SW,225,0.0,0.0,78,0.00,,,0.00,VWS V13.01,2013-08-18 04:26:00,
2013-08-18 00:31:00,62.6,56.0,29.88,SW,225,0.0,0.0,79,0.00,,,0.00,VWS V13.01,2013-08-18 04:31:00,
2013-08-18 00:36:00,62.6,56.0,29.88,SW,225,0.0,0.0,79,0.00,,,0.00,VWS V13.01,2013-08-18 04:36:00,
2013-08-18 00:41:00,62.6,56.0,29.88,SW,225,0.0,0.0,79,0.00,,,0.00,VWS V13.01,2013-08-18 04:41:00,
2013-08-18 00:46:00,62.6,56.0,29.88,SW,225,0.0,0.0,79,0.00,,,0.00,VWS V13.01,2013-08-18 04:46:00,
2013-08-18 00:51:00,62.6,56.3,29.88,SW,225,0.0,0.0,80,0.00,,,0.00,VWS V13.01,2013-08-18 04:51:00,
2013-08-18 00:56:00,62.8,56.5,29.88,SW,225,0.0,0.0,80,0.00,,,0.00,VWS V13.01,2013-08-18 04:56:00,
2013-08-18 01:01:00,62.8,56.5,29.88,SW,225,0.0,0.0,80,0.00,,,0.00,VWS V13.01,2013-08-18 05:01:00,
2013-08-18 01:05:00,62.8,56.5,29.88,SW,225,0.0,0.0,80,0.00,,,0.00,VWS V13.01,2013-08-18 05:05:00,
2013-08-18 01:10:00,62.8,56.9,29.88,SW,225,0.0,0.0,81,0.00,,,0.00,VWS V13.01,2013-08-18 05:10:00,
2013-08-18 01:15:00,62.8,56.9,29.88,SW,225,0.0,0.0,81,0.00,,,0.00,VWS V13.01,2013-08-18 05:15:00,
2013-08-18 01:20:00,63.0,57.0,29.88,SW,225,0.0,0.0,81,0.00,,,0.00,VWS V13.01,2013-08-18 05:20:00,
2013-08-18 01:25:00,62.8,56.9,29.88,SW,225,0.0,0.0,81,0.00,,,0.00,VWS V13.01,2013-08-18 05:25:00,
2013-08-18 01:30:00,62.8,56.9,29.88,SW,225,0.0,0.0,81,0.00,,,0.00,VWS V13.01,2013-08-18 05:30:00,
2013-08-18 01:35:00,62.8,56.5,29.88,SW,225,0.0,0.0,80,0.00,,,0.00,VWS V13.01,2013-08-18 05:35:00,
2013-08-18 01:40:00,62.6,56.3,29.85,SW,225,0.0,0.0,80,0.00,,,0.00,VWS V13.01,2013-08-18 05:40:00,
2013-08-18 01:45:00,62.6,56.7,29.85,SW,225,0.0,0.0,81,0.00,,,0.00,VWS V13.01,2013-08-18 05:45:00,
2013-08-18 01:50:00,62.4,56.5,29.85,SW,225,0.0,0.0,81,0.00,,,0.00,VWS V13.01,2013-08-18 05:50:00,
2013-08-18 01:55:00,62.4,56.5,29.85,SW,225,0.0,0.0,81,0.00,,,0.00,VWS V13.01,2013-08-18 05:55:00,
2013-08-18 02:00:00,62.4,56.5,29.85,SW,225,0.0,0.0,81,0.00,,,0.00,VWS V13.01,2013-08-18 06:00:00,
2013-08-18 02:05:00,62.4,56.9,29.85,SW,225,0.0,0.0,82,0.00,,,0.00,VWS V13.01,2013-08-18 06:05:00,
2013-08-18 02:10:00,62.6,57.0,29.85,SW,225,0.0,0.0,82,0.00,,,0.00,VWS V13.01,2013-08-18 06:10:00,
2013-08-18 02:15:00,62.6,57.0,29.85,SW,225,0.0,0.0,82,0.00,,,0.00,VWS V13.01,2013-08-18 06:15:00,
2013-08-18 02:20:00,62.8,57.2,29.85,SW,225,0.0,0.0,82,0.00,,,0.00,VWS V13.01,2013-08-18 06:20:00,
2013-08-18 02:25:00,62.8,57.2,29.85,SW,225,0.0,0.0,82,0.00,,,0.00,VWS V13.01,2013-08-18 06:25:00,
2013-08-18 02:30:00,62.8,57.2,29.85,SW,225,0.0,0.0,82,0.00,,,0.00,VWS V13.01,2013-08-18 06:30:00,
2013-08-18 02:35:00,63.0,57.7,29.85,SW,225,0.0,0.0,83,0.00,,,0.00,VWS V13.01,2013-08-18 06:35:00,
2013-08-18 02:40:00,62.8,57.2,29.85,SW,225,0.0,0.0,82,0.00,,,0.00,VWS V13.01,2013-08-18 06:40:00,
2013-08-18 02:45:00,62.8,57.2,29.85,SW,225,0.0,0.0,82,0.00,,,0.00,VWS V13.01,2013-08-18 06:45:00,
2013-08-18 02:50:00,62.8,57.2,29.85,SW,225,0.0,0.0,82,0.00,,,0.00,VWS V13.01,2013-08-18 06:50:00,
2013-08-18 02:55:00,62.6,57.0,29.85,SW,225,0.0,0.0,82,0.00,,,0.00,VWS V13.01,2013-08-18 06:55:00,
2013-08-18 03:00:00,62.6,57.0,29.85,SW,225,0.0,0.0,82,0.00,,,0.00,VWS V13.01,2013-08-18 07:00:00,
2013-08-18 03:05:00,62.4,57.2,29.85,SW,225,0.0,0.0,83,0.00,,,0.00,VWS V13.01,2013-08-18 07:05:00,
2013-08-18 03:10:00,62.2,57.0,29.85,SW,225,0.0,0.0,83,0.00,,,0.00,VWS V13.01,2013-08-18 07:10:00,
2013-08-18 03:15:00,62.4,57.2,29.85,SW,225,0.0,0.0,83,0.00,,,0.00,VWS V13.01,2013-08-18 07:15:00,
2013-08-18 03:20:00,62.2,57.3,29.85,SW,225,0.0,0.0,84,0.00,,,0.00,VWS V13.01,2013-08-18 07:20:00,
2013-08-18 03:25:00,62.2,57.3,29.85,SW,225,0.0,0.0,84,0.00,,,0.00,VWS V13.01,2013-08-18 07:25:00,
2013-08-18 03:30:00,62.2,57.3,29.85,SW,225,0.0,0.0,84,0.00,,,0.00,VWS V13.01,2013-08-18 07:30:00,
2013-08-18 03:35:00,62.2,57.7,29.85,SW,225,0.0,0.0,85,0.00,,,0.00,VWS V13.01,2013-08-18 07:35:00,
2013-08-18 03:40:00,62.2,57.7,29.85,SW,225,0.0,0.0,85,0.00,,,0.00,VWS V13.01,2013-08-18 07:40:00,
2013-08-18 03:45:00,62.1,57.5,29.85,SW,225,0.0,0.0,85,0.00,,,0.00,VWS V13.01,2013-08-18 07:45:00,
2013-08-18 03:50:00,62.1,57.5,29.85,SW,225,0.0,0.0,85,0.00,,,0.00,VWS V13.01,2013-08-18 07:50:00,
2013-08-18 03:55:00,62.1,57.8,29.85,SW,225,0.0,0.0,86,0.00,,,0.00,VWS V13.01,2013-08-18 07:55:00,
2013-08-18 04:00:00,62.1,57.8,29.85,SW,225,0.0,0.0,86,0.00,,,0.00,VWS V13.01,2013-08-18 08:00:00,
2013-08-18 04:05:00,61.9,58.0,29.85,SW,225,0.0,0.0,87,0.00,,,0.00,VWS V13.01,2013-08-18 08:05:00,
2013-08-18 04:10:00,62.1,58.5,29.85,SW,225,0.0,0.0,88,0.00,,,0.00,VWS V13.01,2013-08-18 08:10:00,
2013-08-18 04:15:00,62.1,58.5,29.85,SW,225,0.0,0.0,88,0.00,,,0.00,VWS V13.01,2013-08-18 08:15:00,
2013-08-18 04:20:00,62.1,58.5,29.85,SW,225,0.0,0.0,88,0.00,,,0.00,VWS V13.01,2013-08-18 08:20:00,
2013-08-18 04:25:00,62.1,58.5,29.85,SW,225,0.0,0.0,88,0.00,,,0.00,VWS V13.01,2013-08-18 08:25:00,
2013-08-18 04:30:00,62.2,59.0,29.85,SW,225,0.0,0.0,89,0.00,,,0.00,VWS V13.01,2013-08-18 08:30:00,
2013-08-18 04:35:00,62.1,58.8,29.85,SW,225,0.0,0.0,89,0.00,,,0.00,VWS V13.01,2013-08-18 08:35:00,
2013-08-18 04:40:00,62.2,59.0,29.85,SW,225,0.0,0.0,89,0.00,,,0.00,VWS V13.01,2013-08-18 08:40:00,
2013-08-18 04:45:00,62.2,59.0,29.85,SW,225,0.0,0.0,89,0.00,,,0.00,VWS V13.01,2013-08-18 08:45:00,
2013-08-18 04:50:00,62.2,59.0,29.85,SW,225,0.0,0.0,89,0.00,,,0.00,VWS V13.01,2013-08-18 08:50:00,
2013-08-18 04:55:00,62.2,59.0,29.85,SW,225,0.0,0.0,89,0.00,,,0.00,VWS V13.01,2013-08-18 08:55:00,
2013-08-18 05:00:00,62.2,59.3,29.85,SW,225,0.0,0.0,90,0.00,,,0.00,VWS V13.01,2013-08-18 09:00:00,
2013-08-18 05:05:00,62.2,59.3,29.85,SW,225,0.0,0.0,90,0.00,,,0.00,VWS V13.01,2013-08-18 09:05:00,
2013-08-18 05:10:00,62.2,59.3,29.85,SW,225,0.0,0.0,90,0.00,,,0.00,VWS V13.01,2013-08-18 09:10:00,
2013-08-18 05:15:00,62.4,59.5,29.85,SW,225,0.0,0.0,90,0.00,,,0.00,VWS V13.01,2013-08-18 09:15:00,
2013-08-18 05:20:00,62.4,59.5,29.85,SW,225,0.0,0.0,90,0.00,,,0.00,VWS V13.01,2013-08-18 09:20:00,
2013-08-18 05:25:00,62.4,59.5,29.85,SW,225,0.0,0.0,90,0.00,,,0.00,VWS V13.01,2013-08-18 09:25:00,
2013-08-18 05:30:00,62.6,59.6,29.85,SW,225,0.0,0.0,90,0.00,,,0.00,VWS V13.01,2013-08-18 09:30:00,
2013-08-18 05:35:00,62.6,59.6,29.85,SW,225,0.0,0.0,90,0.00,,,0.00,VWS V13.01,2013-08-18 09:35:00,
2013-08-18 05:40:00,62.8,59.8,29.85,SW,225,0.0,0.0,90,0.00,,,0.00,VWS V13.01,2013-08-18 09:40:00,
2013-08-18 05:45:00,62.6,59.6,29.85,SW,225,0.0,0.0,90,0.00,,,0.00,VWS V13.01,2013-08-18 09:45:00,
2013-08-18 05:50:00,62.8,59.8,29.85,SW,225,0.0,0.0,90,0.00,,,0.00,VWS V13.01,2013-08-18 09:50:00,
2013-08-18 05:55:00,62.8,59.8,29.85,SW,225,0.0,0.0,90,0.00,,,0.00,VWS V13.01,2013-08-18 09:55:00,
2013-08-18 06:00:00,63.0,60.0,29.85,SW,225,0.0,0.0,90,0.00,,,0.00,VWS V13.01,2013-08-18 10:00:00,
2013-08-18 06:05:00,62.8,59.8,29.85,SW,225,0.0,0.0,90,0.00,,,0.00,VWS V13.01,2013-08-18 10:05:00,
2013-08-18 06:10:00,63.0,60.0,29.85,SW,225,0.0,0.0,90,0.00,,,0.00,VWS V13.01,2013-08-18 10:10:00,
2013-08-18 06:15:00,63.1,60.2,29.85,SW,225,0.0,0.0,90,0.00,,,0.00,VWS V13.01,2013-08-18 10:15:00,
2013-08-18 06:20:00,63.1,60.2,29.85,SW,225,0.0,0.0,90,0.00,,,0.00,VWS V13.01,2013-08-18 10:20:00,
2013-08-18 06:25:00,63.1,60.2,29.85,SW,225,0.0,0.0,90,0.00,,,0.00,VWS V13.01,2013-08-18 10:25:00,
2013-08-18 06:30:00,63.1,60.2,29.85,SW,225,0.0,0.0,90,0.00,,,0.00,VWS V13.01,2013-08-18 10:30:00,
2013-08-18 06:35:00,63.1,60.2,29.85,SW,225,0.0,0.0,90,0.00,,,0.00,VWS V13.01,2013-08-18 10:35:00,
2013-08-18 06:40:00,63.1,60.2,29.85,SW,225,0.0,0.0,90,0.00,,,0.00,VWS V13.01,2013-08-18 10:40:00,
2013-08-18 06:45:00,63.3,60.3,29.85,SW,225,0.0,0.0,90,0.00,,,0.00,VWS V13.01,2013-08-18 10:45:00,
2013-08-18 06:50:00,63.3,60.3,29.85,SW,225,0.0,0.0,90,0.00,,,0.00,VWS V13.01,2013-08-18 10:50:00,
2013-08-18 06:55:00,63.5,60.5,29.85,SW,225,0.0,0.0,90,0.00,,,0.00,VWS V13.01,2013-08-18 10:55:00,
2013-08-18 07:00:00,63.7,60.7,29.85,SW,225,0.0,0.0,90,0.00,,,0.00,VWS V13.01,2013-08-18 11:00:00,
2013-08-18 07:04:00,63.7,60.7,29.85,SW,225,0.0,0.0,90,0.00,,,0.00,VWS V13.01,2013-08-18 11:04:00,
2013-08-18 07:09:00,63.9,60.9,29.85,SW,225,0.0,0.0,90,0.00,,,0.00,VWS V13.01,2013-08-18 11:09:00,
2013-08-18 07:14:00,64.0,61.0,29.85,SW,225,0.0,0.0,90,0.00,,,0.00,VWS V13.01,2013-08-18 11:14:00,
2013-08-18 07:19:00,64.2,61.2,29.85,SW,225,0.0,0.0,90,0.00,,,0.00,VWS V13.01,2013-08-18 11:19:00,
2013-08-18 07:24:00,64.4,61.4,29.88,SW,225,0.0,0.0,90,0.00,,,0.00,VWS V13.01,2013-08-18 11:24:00,
2013-08-18 07:29:00,64.4,61.4,29.88,SW,225,0.0,0.0,90,0.00,,,0.00,VWS V13.01,2013-08-18 11:29:00,
2013-08-18 07:34:00,64.6,61.6,29.88,SW,225,0.0,0.0,90,0.00,,,0.00,VWS V13.01,2013-08-18 11:34:00,
2013-08-18 07:39:00,64.8,61.8,29.88,SW,225,0.0,0.0,90,0.00,,,0.00,VWS V13.01,2013-08-18 11:39:00,
2013-08-18 07:44:00,65.1,62.1,29.85,SW,225,0.0,0.0,90,0.00,,,0.00,VWS V13.01,2013-08-18 11:44:00,
2013-08-18 07:49:00,65.3,62.0,29.85,SW,225,0.0,0.0,89,0.00,,,0.00,VWS V13.01,2013-08-18 11:49:00,
2013-08-18 07:54:00,65.7,62.3,29.85,SW,225,0.0,0.0,89,0.00,,,0.00,VWS V13.01,2013-08-18 11:54:00,
2013-08-18 07:59:00,66.0,62.7,29.85,SW,225,0.0,0.0,89,0.00,,,0.00,VWS V13.01,2013-08-18 11:59:00,
2013-08-18 08:04:00,66.4,62.7,29.85,SW,225,0.0,0.0,88,0.00,,,0.00,VWS V13.01,2013-08-18 12:04:00,
2013-08-18 08:09:00,66.7,62.8,29.85,SW,225,0.0,0.0,87,0.00,,,0.00,VWS V13.01,2013-08-18 12:09:00,
2013-08-18 08:14:00,66.9,62.3,29.88,SW,225,0.0,0.0,85,0.00,,,0.00,VWS V13.01,2013-08-18 12:14:00,
2013-08-18 08:19:00,67.3,61.3,29.88,SW,225,0.0,0.0,81,0.00,,,0.00,VWS V13.01,2013-08-18 12:19:00,
2013-08-18 08:24:00,67.6,61.6,29.85,SW,225,0.0,0.0,81,0.00,,,0.00,VWS V13.01,2013-08-18 12:24:00,
2013-08-18 08:29:00,67.8,61.4,29.85,SW,225,0.0,0.0,80,0.00,,,0.00,VWS V13.01,2013-08-18 12:29:00,
2013-08-18 08:34:00,68.4,61.6,29.85,SW,225,0.0,0.0,79,0.00,,,0.00,VWS V13.01,2013-08-18 12:34:00,
2013-08-18 08:39:00,68.4,61.2,29.85,SW,225,0.0,0.0,78,0.00,,,0.00,VWS V13.01,2013-08-18 12:39:00,
2013-08-18 08:44:00,68.7,61.2,29.85,SW,225,0.0,0.0,77,0.00,,,0.00,VWS V13.01,2013-08-18 12:44:00,
2013-08-18 08:49:00,68.9,61.4,29.85,SW,225,0.0,0.0,77,0.00,,,0.00,VWS V13.01,2013-08-18 12:49:00,
2013-08-18 08:54:00,69.3,61.4,29.85,SW,225,0.0,0.0,76,0.00,,,0.00,VWS V13.01,2013-08-18 12:54:00,
2013-08-18 08:59:00,69.6,61.3,29.85,SW,225,0.0,0.0,75,0.00,,,0.00,VWS V13.01,2013-08-18 12:59:00,
2013-08-18 09:04:00,69.8,61.2,29.85,SW,225,0.0,0.0,74,0.00,,,0.00,VWS V13.01,2013-08-18 13:04:00,
2013-08-18 09:09:00,70.0,60.9,29.85,SW,225,0.0,0.0,73,0.00,,,0.00,VWS V13.01,2013-08-18 13:09:00,
2013-08-18 09:14:00,70.2,61.1,29.85,SW,225,0.0,0.0,73,0.00,,,0.00,VWS V13.01,2013-08-18 13:14:00,
2013-08-18 09:19:00,70.5,61.5,29.85,SW,225,0.0,0.0,73,0.00,,,0.00,VWS V13.01,2013-08-18 13:19:00,
2013-08-18 09:24:00,70.9,61.4,29.85,SW,225,0.0,0.0,72,0.00,,,0.00,VWS V13.01,2013-08-18 13:24:00,
2013-08-18 09:29:00,71.2,62.2,29.88,SW,225,0.0,0.0,73,0.00,,,0.00,VWS V13.01,2013-08-18 13:29:00,
2013-08-18 09:34:00,71.4,61.5,29.88,SW,225,0.0,0.0,71,0.00,,,0.00,VWS V13.01,2013-08-18 13:34:00,
2013-08-18 09:39:00,71.4,61.1,29.88,SW,225,0.0,0.0,70,0.00,,,0.00,VWS V13.01,2013-08-18 13:39:00,
2013-08-18 09:44:00,71.8,61.1,29.85,SW,225,0.0,0.0,69,0.00,,,0.00,VWS V13.01,2013-08-18 13:44:00,
2013-08-18 09:49:00,72.0,61.2,29.85,SW,225,0.0,0.0,69,0.00,,,0.00,VWS V13.01,2013-08-18 13:49:00,
2013-08-18 09:54:00,71.8,60.2,29.85,SW,225,0.0,0.0,67,0.00,,,0.00,VWS V13.01,2013-08-18 13:54:00,
2013-08-18 09:59:00,72.0,60.0,29.85,SW,225,0.0,0.0,66,0.00,,,0.00,VWS V13.01,2013-08-18 13:59:00,
2013-08-18 10:04:00,72.3,61.2,29.85,SW,225,0.0,0.0,68,0.00,,,0.00,VWS V13.01,2013-08-18 14:04:00,
2013-08-18 10:09:00,72.5,60.1,29.85,SW,225,0.0,0.0,65,0.00,,,0.00,VWS V13.01,2013-08-18 14:09:00,
2013-08-18 10:14:00,72.7,60.7,29.85,SW,225,0.0,0.0,66,0.00,,,0.00,VWS V13.01,2013-08-18 14:14:00,
2013-08-18 10:19:00,72.9,60.4,29.85,SW,225,0.0,0.0,65,0.00,,,0.00,VWS V13.01,2013-08-18 14:19:00,
2013-08-18 10:24:00,73.2,59.9,29.85,SW,225,0.0,0.0,63,0.00,,,0.00,VWS V13.01,2013-08-18 14:24:00,
2013-08-18 10:29:00,73.9,60.1,29.88,SW,225,0.0,0.0,62,0.00,,,0.00,VWS V13.01,2013-08-18 14:29:00,
2013-08-18 10:34:00,74.3,59.1,29.88,SW,225,0.0,0.0,59,0.00,,,0.00,VWS V13.01,2013-08-18 14:34:00,
2013-08-18 10:39:00,74.5,58.8,29.88,SW,225,0.0,0.0,58,0.00,,,0.00,VWS V13.01,2013-08-18 14:39:00,
2013-08-18 10:44:00,74.8,59.6,29.85,SW,225,0.0,0.0,59,0.00,,,0.00,VWS V13.01,2013-08-18 14:44:00,
2013-08-18 10:49:00,74.8,59.1,29.85,SW,225,0.0,0.0,58,0.00,,,0.00,VWS V13.01,2013-08-18 14:49:00,
2013-08-18 10:54:00,75.4,60.1,29.85,SW,225,0.0,0.0,59,0.00,,,0.00,VWS V13.01,2013-08-18 14:54:00,
2013-08-18 10:59:00,75.2,58.4,29.85,SSE,158,0.0,0.0,56,0.00,,,0.00,VWS V13.01,2013-08-18 14:59:00,
2013-08-18 11:04:00,75.7,57.9,29.85,SW,225,0.0,0.0,54,0.00,,,0.00,VWS V13.01,2013-08-18 15:04:00,
2013-08-18 11:09:00,76.8,60.0,29.85,SW,225,0.0,0.0,56,0.00,,,0.00,VWS V13.01,2013-08-18 15:09:00,
2013-08-18 11:14:00,77.5,59.6,29.85,SW,225,0.0,0.0,54,0.00,,,0.00,VWS V13.01,2013-08-18 15:14:00,
2013-08-18 11:19:00,77.7,60.3,29.85,SW,225,0.0,0.0,55,0.00,,,0.00,VWS V13.01,2013-08-18 15:19:00,
2013-08-18 11:24:00,78.1,60.1,29.85,SW,225,0.0,0.0,54,0.00,,,0.00,VWS V13.01,2013-08-18 15:24:00,
2013-08-18 11:29:00,78.1,58.0,29.85,SW,225,0.0,0.0,50,0.00,,,0.00,VWS V13.01,2013-08-18 15:29:00,
2013-08-18 11:34:00,78.3,59.2,29.85,SW,225,0.0,0.0,52,0.00,,,0.00,VWS V13.01,2013-08-18 15:34:00,
2013-08-18 11:39:00,78.1,58.0,29.85,SW,225,0.0,0.0,50,0.00,,,0.00,VWS V13.01,2013-08-18 15:39:00,
2013-08-18 11:44:00,77.9,58.3,29.85,SW,225,0.0,0.0,51,0.00,,,0.00,VWS V13.01,2013-08-18 15:44:00,
2013-08-18 11:49:00,77.5,57.5,29.85,SW,225,0.0,0.0,50,0.00,,,0.00,VWS V13.01,2013-08-18 15:49:00,
2013-08-18 11:54:00,77.4,57.3,29.85,SW,225,0.0,0.0,50,0.00,,,0.00,VWS V13.01,2013-08-18 15:54:00,
2013-08-18 11:59:00,77.2,57.1,29.85,SW,225,0.0,0.0,50,0.00,,,0.00,VWS V13.01,2013-08-18 15:59:00,
2013-08-18 12:04:00,76.8,56.8,29.85,SW,225,0.0,0.0,50,0.00,,,0.00,VWS V13.01,2013-08-18 16:04:00,
2013-08-18 12:09:00,76.5,57.5,29.85,SW,225,0.0,0.0,52,0.00,,,0.00,VWS V13.01,2013-08-18 16:09:00,
2013-08-18 12:14:00,76.3,58.4,29.85,SW,225,0.0,0.0,54,0.00,,,0.00,VWS V13.01,2013-08-18 16:14:00,
2013-08-18 12:19:00,75.7,57.9,29.85,SW,225,0.0,0.0,54,0.00,,,0.00,VWS V13.01,2013-08-18 16:19:00,
2013-08-18 12:24:00,75.4,57.1,29.85,SW,225,0.0,0.0,53,0.00,,,0.00,VWS V13.01,2013-08-18 16:24:00,
2013-08-18 12:29:00,75.0,56.8,29.85,SW,225,0.0,0.0,53,0.00,,,0.00,VWS V13.01,2013-08-18 16:29:00,
2013-08-18 12:34:00,75.2,57.4,29.85,SW,225,0.0,0.0,54,0.00,,,0.00,VWS V13.01,2013-08-18 16:34:00,
2013-08-18 12:39:00,75.0,57.3,29.85,SW,225,0.0,0.0,54,0.00,,,0.00,VWS V13.01,2013-08-18 16:39:00,
2013-08-18 12:44:00,75.0,58.8,29.85,SW,225,0.0,0.0,57,0.00,,,0.00,VWS V13.01,2013-08-18 16:44:00,
2013-08-18 12:49:00,75.4,59.6,29.85,SW,225,0.0,0.0,58,0.00,,,0.00,VWS V13.01,2013-08-18 16:49:00,
2013-08-18 12:54:00,75.6,59.8,29.85,SW,225,0.0,0.0,58,0.00,,,0.00,VWS V13.01,2013-08-18 16:54:00,
2013-08-18 12:59:00,75.2,58.4,29.85,SW,225,0.0,0.0,56,0.00,,,0.00,VWS V13.01,2013-08-18 16:59:00,
2013-08-18 13:04:00,75.2,57.4,29.85,SW,225,0.0,0.0,54,0.00,,,0.00,VWS V13.01,2013-08-18 17:04:00,
2013-08-18 13:09:00,75.2,57.9,29.85,SW,225,0.0,0.0,55,0.00,,,0.00,VWS V13.01,2013-08-18 17:09:00,
2013-08-18 13:14:00,75.7,59.0,29.85,SW,225,0.0,0.0,56,0.00,,,0.00,VWS V13.01,2013-08-18 17:14:00,
2013-08-18 13:19:00,76.1,58.8,29.85,SW,225,0.0,0.0,55,0.00,,,0.00,VWS V13.01,2013-08-18 17:19:00,
2013-08-18 13:24:00,76.1,57.8,29.85,SW,225,0.0,0.0,53,0.00,,,0.00,VWS V13.01,2013-08-18 17:24:00,
2013-08-18 13:29:00,76.1,58.8,29.85,SW,225,0.0,0.0,55,0.00,,,0.00,VWS V13.01,2013-08-18 17:29:00,
2013-08-18 13:34:00,76.3,60.0,29.85,SW,225,0.0,0.0,57,0.00,,,0.00,VWS V13.01,2013-08-18 17:34:00,
2013-08-18 13:39:00,76.5,60.6,29.85,SW,225,0.0,0.0,58,0.00,,,0.00,VWS V13.01,2013-08-18 17:39:00,
2013-08-18 13:44:00,76.5,59.6,29.85,SW,225,0.0,0.0,56,0.00,,,0.00,VWS V13.01,2013-08-18 17:44:00,
2013-08-18 13:49:00,76.3,58.4,29.85,SW,225,0.0,0.0,54,0.00,,,0.00,VWS V13.01,2013-08-18 17:49:00,
2013-08-18 13:54:00,76.1,58.8,29.85,SW,225,0.0,0.0,55,0.00,,,0.00,VWS V13.01,2013-08-18 17:54:00,
2013-08-18 13:59:00,75.9,57.6,29.82,SW,225,0.0,0.0,53,0.00,,,0.00,VWS V13.01,2013-08-18 17:59:00,
2013-08-18 14:04:00,75.9,57.0,29.82,SW,225,0.0,0.0,52,0.00,,,0.00,VWS V13.01,2013-08-18 18:04:00,
2013-08-18 14:09:00,75.7,54.7,29.82,SW,225,0.0,0.0,48,0.00,,,0.00,VWS V13.01,2013-08-18 18:09:00,
2013-08-18 14:14:00,76.1,55.0,29.82,SW,225,0.0,0.0,48,0.00,,,0.00,VWS V13.01,2013-08-18 18:14:00,
2013-08-18 14:18:00,75.7,55.2,29.82,SW,225,0.0,0.0,49,0.00,,,0.00,VWS V13.01,2013-08-18 18:18:00,
2013-08-18 14:23:00,75.7,56.3,29.82,SW,225,0.0,0.0,51,0.00,,,0.00,VWS V13.01,2013-08-18 18:23:00,
2013-08-18 14:28:00,75.6,55.6,29.82,SW,225,0.0,0.0,50,0.00,,,0.00,VWS V13.01,2013-08-18 18:28:00,
2013-08-18 14:33:00,75.6,56.2,29.82,SW,225,0.0,0.0,51,0.00,,,0.00,VWS V13.01,2013-08-18 18:33:00,
2013-08-18 14:38:00,75.4,56.0,29.82,SW,225,0.0,0.0,51,0.00,,,0.00,VWS V13.01,2013-08-18 18:38:00,
2013-08-18 14:43:00,75.4,56.5,29.79,SW,225,0.0,0.0,52,0.00,,,0.00,VWS V13.01,2013-08-18 18:43:00,
2013-08-18 14:48:00,75.0,56.2,29.79,SW,225,0.0,0.0,52,0.00,,,0.00,VWS V13.01,2013-08-18 18:48:00,
2013-08-18 14:53:00,75.0,58.8,29.79,SW,225,0.0,0.0,57,0.00,,,0.00,VWS V13.01,2013-08-18 18:53:00,
2013-08-18 14:58:00,74.5,58.8,29.82,SW,225,0.0,0.0,58,0.00,,,0.00,VWS V13.01,2013-08-18 18:58:00,
2013-08-18 15:03:00,73.9,58.7,29.82,SW,225,0.0,0.0,59,0.00,,,0.00,VWS V13.01,2013-08-18 19:03:00,
2013-08-18 15:08:00,73.6,58.8,29.82,SW,225,0.0,0.0,60,0.00,,,0.00,VWS V13.01,2013-08-18 19:08:00,
2013-08-18 15:13:00,73.6,59.3,29.79,SW,225,0.0,0.0,61,0.00,,,0.00,VWS V13.01,2013-08-18 19:13:00,
2013-08-18 15:18:00,73.4,59.6,29.79,SW,225,0.0,0.0,62,0.00,,,0.00,VWS V13.01,2013-08-18 19:18:00,
2013-08-18 15:23:00,73.4,59.2,29.79,SW,225,0.0,0.0,61,0.00,,,0.00,VWS V13.01,2013-08-18 19:23:00,
2013-08-18 15:28:00,73.2,58.5,29.79,SW,225,0.0,0.0,60,0.00,,,0.00,VWS V13.01,2013-08-18 19:28:00,
2013-08-18 15:33:00,73.0,57.4,29.79,SW,225,0.0,0.0,58,0.00,,,0.00,VWS V13.01,2013-08-18 19:33:00,
2013-08-18 15:38:00,73.0,57.4,29.79,SW,225,0.0,0.0,58,0.00,,,0.00,VWS V13.01,2013-08-18 19:38:00,
2013-08-18 15:43:00,73.2,57.1,29.79,SW,225,0.0,0.0,57,0.00,,,0.00,VWS V13.01,2013-08-18 19:43:00,
2013-08-18 15:48:00,73.2,56.6,29.79,SW,225,0.0,0.0,56,0.00,,,0.00,VWS V13.01,2013-08-18 19:48:00,
2013-08-18 15:53:00,73.2,56.1,29.79,SW,225,0.0,0.0,55,0.00,,,0.00,VWS V13.01,2013-08-18 19:53:00,
2013-08-18 15:58:00,73.4,56.8,29.79,SW,225,0.0,0.0,56,0.00,,,0.00,VWS V13.01,2013-08-18 19:58:00,
2013-08-18 16:03:00,73.4,54.7,29.79,SW,225,0.0,0.0,52,0.00,,,0.00,VWS V13.01,2013-08-18 20:03:00,
2013-08-18 16:08:00,73.4,55.8,29.79,SW,225,0.0,0.0,54,0.00,,,0.00,VWS V13.01,2013-08-18 20:08:00,
2013-08-18 16:13:00,73.2,54.6,29.79,SW,225,0.0,0.0,52,0.00,,,0.00,VWS V13.01,2013-08-18 20:13:00,
2013-08-18 16:18:00,73.2,55.6,29.79,SW,225,0.0,0.0,54,0.00,,,0.00,VWS V13.01,2013-08-18 20:18:00,
2013-08-18 16:23:00,73.2,54.0,29.79,SW,225,0.0,0.0,51,0.00,,,0.00,VWS V13.01,2013-08-18 20:23:00,
2013-08-18 16:28:00,73.4,53.7,29.79,SW,225,0.0,0.0,50,0.00,,,0.00,VWS V13.01,2013-08-18 20:28:00,
2013-08-18 16:33:00,73.2,52.9,29.79,SSW,202,0.0,0.0,49,0.00,,,0.00,VWS V13.01,2013-08-18 20:33:00,
2013-08-18 16:38:00,73.2,53.5,29.79,SSW,202,0.0,0.0,50,0.00,,,0.00,VWS V13.01,2013-08-18 20:38:00,
2013-08-18 16:43:00,73.2,55.1,29.76,SSW,202,0.0,0.0,53,0.00,,,0.00,VWS V13.01,2013-08-18 20:43:00,
2013-08-18 16:48:00,73.2,55.1,29.76,SSW,202,0.0,0.0,53,0.00,,,0.00,VWS V13.01,2013-08-18 20:48:00,
2013-08-18 16:53:00,73.0,52.2,29.76,SSW,202,0.0,0.0,48,0.00,,,0.00,VWS V13.01,2013-08-18 20:53:00,
2013-08-18 16:58:00,72.9,53.2,29.76,SSW,202,0.0,0.0,50,0.00,,,0.00,VWS V13.01,2013-08-18 20:58:00,
2013-08-18 17:03:00,72.7,53.5,29.76,SSW,202,0.0,0.0,51,0.00,,,0.00,VWS V13.01,2013-08-18 21:03:00,
2013-08-18 17:08:00,72.5,53.9,29.76,SSW,202,0.0,0.0,52,0.00,,,0.00,VWS V13.01,2013-08-18 21:08:00,
2013-08-18 17:13:00,72.1,54.1,29.76,SSW,202,0.0,0.0,53,0.00,,,0.00,VWS V13.01,2013-08-18 21:13:00,
2013-08-18 17:18:00,71.8,55.3,29.76,SSW,202,0.0,0.0,56,0.00,,,0.00,VWS V13.01,2013-08-18 21:18:00,
2013-08-18 17:23:00,71.4,56.8,29.76,SSW,202,0.0,0.0,60,0.00,,,0.00,VWS V13.01,2013-08-18 21:23:00,
2013-08-18 17:28:00,70.9,57.7,29.76,SSW,202,0.0,0.0,63,0.00,,,0.00,VWS V13.01,2013-08-18 21:28:00,
2013-08-18 17:33:00,70.5,58.2,29.76,SSW,202,0.0,0.0,65,0.00,,,0.00,VWS V13.01,2013-08-18 21:33:00,
2013-08-18 17:38:00,70.2,57.9,29.76,SSW,202,0.0,0.0,65,0.00,,,0.00,VWS V13.01,2013-08-18 21:38:00,
2013-08-18 17:43:00,69.8,58.4,29.76,SSW,202,0.0,0.0,67,0.00,,,0.00,VWS V13.01,2013-08-18 21:43:00,
2013-08-18 17:48:00,69.6,58.6,29.76,SSW,202,0.0,0.0,68,0.00,,,0.00,VWS V13.01,2013-08-18 21:48:00,
2013-08-18 17:53:00,69.6,59.0,29.76,SSW,202,0.0,0.0,69,0.00,,,0.00,VWS V13.01,2013-08-18 21:53:00,
2013-08-18 17:58:00,69.4,58.8,29.76,SSW,202,0.0,0.0,69,0.00,,,0.00,VWS V13.01,2013-08-18 21:58:00,
2013-08-18 18:03:00,69.4,58.8,29.76,SSW,202,0.0,0.0,69,0.00,,,0.00,VWS V13.01,2013-08-18 22:03:00,
2013-08-18 18:08:00,69.4,58.8,29.76,SSW,202,0.0,0.0,69,0.00,,,0.00,VWS V13.01,2013-08-18 22:08:00,
2013-08-18 18:13:00,69.4,58.8,29.76,SSW,202,0.0,0.0,69,0.00,,,0.00,VWS V13.01,2013-08-18 22:13:00,
2013-08-18 18:18:00,69.4,58.8,29.76,SSW,202,0.0,0.0,69,0.00,,,0.00,VWS V13.01,2013-08-18 22:18:00,
2013-08-18 18:23:00,69.4,58.8,29.76,SSW,202,0.0,0.0,69,0.00,,,0.00,VWS V13.01,2013-08-18 22:23:00,
2013-08-18 18:28:00,69.4,58.8,29.76,SSW,202,0.0,0.0,69,0.00,,,0.00,VWS V13.01,2013-08-18 22:28:00,
2013-08-18 18:33:00,69.4,58.4,29.76,SSW,202,0.0,0.0,68,0.00,,,0.00,VWS V13.01,2013-08-18 22:33:00,
2013-08-18 18:38:00,69.4,58.8,29.76,SSW,202,0.0,0.0,69,0.00,,,0.00,VWS V13.01,2013-08-18 22:38:00,
2013-08-18 18:43:00,69.4,58.0,29.76,SSW,202,0.0,0.0,67,0.00,,,0.00,VWS V13.01,2013-08-18 22:43:00,
2013-08-18 18:48:00,69.4,58.4,29.76,SSW,202,0.0,0.0,68,0.00,,,0.00,VWS V13.01,2013-08-18 22:48:00,
2013-08-18 18:53:00,69.4,58.0,29.76,SSW,202,0.0,0.0,67,0.00,,,0.00,VWS V13.01,2013-08-18 22:53:00,
2013-08-18 18:58:00,69.4,58.0,29.76,SSW,202,0.0,0.0,67,0.00,,,0.00,VWS V13.01,2013-08-18 22:58:00,
2013-08-18 19:03:00,69.3,57.8,29.76,SSW,202,0.0,0.0,67,0.00,,,0.00,VWS V13.01,2013-08-18 23:03:00,
2013-08-18 19:08:00,69.3,58.3,29.76,SSW,202,0.0,0.0,68,0.00,,,0.00,VWS V13.01,2013-08-18 23:08:00,
2013-08-18 19:13:00,69.1,58.5,29.76,SSW,202,0.0,0.0,69,0.00,,,0.00,VWS V13.01,2013-08-18 23:13:00,
2013-08-18 19:18:00,69.1,58.5,29.76,SSW,202,0.0,0.0,69,0.00,,,0.00,VWS V13.01,2013-08-18 23:18:00,
2013-08-18 19:23:00,68.9,57.9,29.76,SSW,202,0.0,0.0,68,0.00,,,0.00,VWS V13.01,2013-08-18 23:23:00,
2013-08-18 19:28:00,68.7,57.7,29.76,SSW,202,0.0,0.0,68,0.00,,,0.00,VWS V13.01,2013-08-18 23:28:00,
2013-08-18 19:33:00,68.5,58.0,29.76,SSW,202,0.0,0.0,69,0.00,,,0.00,VWS V13.01,2013-08-18 23:33:00,
2013-08-18 19:37:00,68.4,57.8,29.76,SSW,202,0.0,0.0,69,0.00,,,0.00,VWS V13.01,2013-08-18 23:37:00,
2013-08-18 19:42:00,68.2,57.6,29.76,SSW,202,0.0,0.0,69,0.00,,,0.00,VWS V13.01,2013-08-18 23:42:00,
2013-08-18 19:47:00,68.2,58.0,29.76,SSW,202,0.0,0.0,70,0.00,,,0.00,VWS V13.01,2013-08-18 23:47:00,
2013-08-18 19:52:00,68.0,57.9,29.76,SSW,202,0.0,0.0,70,0.00,,,0.00,VWS V13.01,2013-08-18 23:52:00,
2013-08-18 19:57:00,67.8,58.1,29.76,SSW,202,0.0,0.0,71,0.00,,,0.00,VWS V13.01,2013-08-18 23:57:00,
2013-08-18 20:02:00,67.6,57.9,29.76,SSW,202,0.0,0.0,71,0.00,,,0.00,VWS V13.01,2013-08-19 00:02:00,
2013-08-18 20:07:00,67.5,57.7,29.76,SSW,202,0.0,0.0,71,0.00,,,0.00,VWS V13.01,2013-08-19 00:07:00,
2013-08-18 20:12:00,67.3,58.0,29.76,SSW,202,0.0,0.0,72,0.00,,,0.00,VWS V13.01,2013-08-19 00:12:00,
2013-08-18 20:17:00,67.3,58.0,29.76,SSW,202,0.0,0.0,72,0.00,,,0.00,VWS V13.01,2013-08-19 00:17:00,
2013-08-18 20:22:00,67.1,57.8,29.76,SSW,202,0.0,0.0,72,0.00,,,0.00,VWS V13.01,2013-08-19 00:22:00,
2013-08-18 20:27:00,66.9,57.6,29.76,SSW,202,0.0,0.0,72,0.00,,,0.00,VWS V13.01,2013-08-19 00:27:00,
2013-08-18 20:32:00,66.9,58.0,29.76,SSW,202,0.0,0.0,73,0.00,,,0.00,VWS V13.01,2013-08-19 00:32:00,
2013-08-18 20:37:00,66.7,57.8,29.76,SSW,202,0.0,0.0,73,0.00,,,0.00,VWS V13.01,2013-08-19 00:37:00,
2013-08-18 20:42:00,66.6,57.7,29.76,SSW,202,0.0,0.0,73,0.00,,,0.00,VWS V13.01,2013-08-19 00:42:00,
2013-08-18 20:47:00,66.6,58.0,29.76,SSW,202,0.0,0.0,74,0.00,,,0.00,VWS V13.01,2013-08-19 00:47:00,
2013-08-18 20:52:00,66.6,58.0,29.76,SSW,202,0.0,0.0,74,0.00,,,0.00,VWS V13.01,2013-08-19 00:52:00,
2013-08-18 20:57:00,66.4,58.2,29.76,SSW,202,0.0,0.0,75,0.00,,,0.00,VWS V13.01,2013-08-19 00:57:00,
2013-08-18 21:02:00,66.4,58.2,29.76,SSW,202,0.0,0.0,75,0.00,,,0.00,VWS V13.01,2013-08-19 01:02:00,
2013-08-18 21:07:00,66.4,58.2,29.76,SSW,202,0.0,0.0,75,0.00,,,0.00,VWS V13.01,2013-08-19 01:07:00,
2013-08-18 21:12:00,66.2,58.4,29.76,SSW,202,0.0,0.0,76,0.00,,,0.00,VWS V13.01,2013-08-19 01:12:00,
2013-08-18 21:17:00,66.2,58.4,29.76,SSW,202,0.0,0.0,76,0.00,,,0.00,VWS V13.01,2013-08-19 01:17:00,
2013-08-18 21:22:00,66.0,58.6,29.76,SSW,202,0.0,0.0,77,0.00,,,0.00,VWS V13.01,2013-08-19 01:22:00,
2013-08-18 21:27:00,65.8,58.4,29.76,SSW,202,0.0,0.0,77,0.00,,,0.00,VWS V13.01,2013-08-19 01:27:00,
2013-08-18 21:32:00,65.7,58.3,29.76,SSW,202,0.0,0.0,77,0.00,,,0.00,VWS V13.01,2013-08-19 01:32:00,
2013-08-18 21:37:00,65.7,58.3,29.76,SSW,202,0.0,0.0,77,0.00,,,0.00,VWS V13.01,2013-08-19 01:37:00,
2013-08-18 21:42:00,65.5,58.5,29.76,SSW,202,0.0,0.0,78,0.00,,,0.00,VWS V13.01,2013-08-19 01:42:00,
2013-08-18 21:47:00,65.5,58.5,29.76,SSW,202,0.0,0.0,78,0.00,,,0.00,VWS V13.01,2013-08-19 01:47:00,
2013-08-18 21:52:00,65.1,58.5,29.76,SSW,202,0.0,0.0,79,0.00,,,0.00,VWS V13.01,2013-08-19 01:52:00,
2013-08-18 21:57:00,64.9,58.3,29.76,SSW,202,0.0,0.0,79,0.00,,,0.00,VWS V13.01,2013-08-19 01:57:00,
2013-08-18 22:02:00,64.8,58.1,29.76,SSW,202,0.0,0.0,79,0.00,,,0.00,VWS V13.01,2013-08-19 02:02:00,
2013-08-18 22:07:00,64.6,58.3,29.76,SSW,202,0.0,0.0,80,0.00,,,0.00,VWS V13.01,2013-08-19 02:07:00,
2013-08-18 22:12:00,64.4,58.1,29.76,SSW,202,0.0,0.0,80,0.00,,,0.00,VWS V13.01,2013-08-19 02:12:00,
2013-08-18 22:17:00,64.2,58.3,29.76,SSW,202,0.0,0.0,81,0.00,,,0.00,VWS V13.01,2013-08-19 02:17:00,
2013-08-18 22:22:00,64.0,58.1,29.76,SSW,202,0.0,0.0,81,0.00,,,0.00,VWS V13.01,2013-08-19 02:22:00,
2013-08-18 22:27:00,63.9,58.3,29.76,SSW,202,0.0,0.0,82,0.00,,,0.00,VWS V13.01,2013-08-19 02:27:00,
2013-08-18 22:32:00,63.9,58.3,29.76,SSW,202,0.0,0.0,82,0.00,,,0.00,VWS V13.01,2013-08-19 02:32:00,
2013-08-18 22:37:00,63.7,58.1,29.76,SSW,202,0.0,0.0,82,0.00,,,0.00,VWS V13.01,2013-08-19 02:37:00,
2013-08-18 22:42:00,63.7,58.4,29.76,SSW,202,0.0,0.0,83,0.00,,,0.00,VWS V13.01,2013-08-19 02:42:00,
2013-08-18 22:47:00,63.7,58.8,29.76,SSW,202,0.0,0.0,84,0.00,,,0.00,VWS V13.01,2013-08-19 02:47:00,
2013-08-18 22:52:00,63.5,58.6,29.76,SSW,202,0.0,0.0,84,0.00,,,0.00,VWS V13.01,2013-08-19 02:52:00,
2013-08-18 22:57:00,63.5,58.9,29.76,SSW,202,0.0,0.0,85,0.00,,,0.00,VWS V13.01,2013-08-19 02:57:00,
2013-08-18 23:02:00,63.5,58.9,29.76,SSW,202,0.0,0.0,85,0.00,,,0.00,VWS V13.01,2013-08-19 03:02:00,
2013-08-18 23:07:00,63.5,59.2,29.76,SSW,202,0.0,0.0,86,0.00,,,0.00,VWS V13.01,2013-08-19 03:07:00,
2013-08-18 23:12:00,63.5,59.6,29.76,SSW,202,0.0,0.0,87,0.00,,,0.00,VWS V13.01,2013-08-19 03:12:00,
2013-08-18 23:17:00,63.5,59.6,29.76,SSW,202,0.0,0.0,87,0.00,,,0.00,VWS V13.01,2013-08-19 03:17:00,
2013-08-18 23:22:00,63.5,59.9,29.76,SSW,202,0.0,0.0,88,0.00,,,0.00,VWS V13.01,2013-08-19 03:22:00,
2013-08-18 23:27:00,63.5,59.9,29.76,SSW,202,0.0,0.0,88,0.00,,,0.00,VWS V13.01,2013-08-19 03:27:00,
2013-08-18 23:32:00,63.5,59.9,29.76,SSW,202,0.0,0.0,88,0.00,,,0.00,VWS V13.01,2013-08-19 03:32:00,
2013-08-18 23:37:00,63.5,60.2,29.76,SSW,202,0.0,0.0,89,0.00,,,0.00,VWS V13.01,2013-08-19 03:37:00,
2013-08-18 23:42:00,63.5,60.2,29.76,SSW,202,0.0,0.0,89,0.00,,,0.00,VWS V13.01,2013-08-19 03:42:00,
2013-08-18 23:47:00,63.3,60.0,29.76,SSW,202,0.0,0.0,89,0.00,,,0.00,VWS V13.01,2013-08-19 03:47:00,
2013-08-18 23:52:00,63.3,60.0,29.76,SSW,202,0.0,0.0,89,0.00,,,0.00,VWS V13.01,2013-08-19 03:52:00,
2013-08-18 23:57:00,63.1,59.8,29.74,SSW,202,0.0,0.0,89,0.00,,,0.00,VWS V13.01,2013-08-19 03:57:00,